Location: Veytaux
(46.4185°N, 6.9320°E)
Time: 08:32:25
(UTC+00:00)

Cosmos 2219 Rocket - Pass Details

Date: 27 May 2022
Orbit: 827 x 847 km, 71.0° (Epoch: 01 July)

Event Time Altitude Azimuth Distance (km) Brightness Sun altitude
Exits shadow 00:26:42 15° 258° (WSW) 2,070 4.0 -21.1°
Maximum altitude 00:30:20 29° 310° (NW) 1,467 3.7 -20.9°
Drops below altitude 10° 00:35:12 10° 10° (N) 2,446 5.8 -20.7°
Sets 00:37:58 0° 22° (NNE) 3,386 6.9 -20.6°
